Location: Newark
(45.6333°N, 17.8833°E)
Time: 14:21:19
(UTC+00:00)

Envisat - Visible Passes

Search period start: 17 September 2019 00:00
Search period end: 27 September 2019 00:00
Orbit: 764 x 766 km, 98.1° (Epoch: 17 September)

Date Brightness Start Highest point End Pass type
(mag) Time Alt. Az. Time Alt. Az. Time Alt. Az.
17 Sep 5.4 17:56:47 10° SSW 18:00:57 25° W 18:05:08 10° NW visible
18 Sep 4.0 17:19:00 10° S 17:23:57 53° W 17:28:56 10° NNW visible
19 Sep 6.0 18:23:54 10° WSW 18:26:44 15° W 18:29:35 10° NW visible
20 Sep 5.0 17:45:07 10° SSW 17:49:36 31° W 17:54:07 10° NNW visible
21 Sep 3.5 17:07:37 10° S 17:12:40 67° WSW 17:17:45 10° NNW visible
22 Sep 5.8 18:11:50 10° SW 18:15:21 19° W 18:18:53 10° NW visible
23 Sep 4.6 17:33:33 10° SSW 17:38:16 39° W 17:43:02 10° NNW visible
24 Sep 6.3 18:40:12 10° W 18:41:12 11° W 18:42:12 10° WNW visible
25 Sep 5.5 17:59:58 10° SW 18:03:58 23° W 18:08:01 10° NW visible
26 Sep 4.1 17:22:04 10° S 17:26:57 48° W 17:31:54 10° NNW visible
